| time (UTC) | temp C | wind direction | speed KPH | gust KPH | rain 1hr cm | rain 24hr cm | rain mn cm | humidity % | barometer mb |
| 20260505124546 | 17 | 110 | 3.2 | 11.3 | 0.00 | 0.00 | 0.00 | 78 | 1017.5 |
| 20260505123046 | 17 | 122 | 3.2 | 8.0 | 0.00 | 0.00 | 0.00 | 81 | 1017.5 |
| 20260505121542 | 16 | 0 | 0.0 | 0.0 | 0.00 | 0.00 | 0.00 | 85 | 1017.4 |
| 20260505120040 | 15 | 0 | 0.0 | 0.0 | 0.00 | 0.00 | 0.00 | 88 | 1017.4 |
| 20260505114541 | 13 | 0 | 0.0 | 0.0 | 0.00 | 0.00 | 0.00 | 90 | 1017.2 |
| 20260505113049 | 12 | 0 | 0.0 | 0.0 | 0.00 | 0.00 | 0.00 | 91 | 1017.2 |
| 20260505111541 | 10 | 0 | 0.0 | 0.0 | 0.00 | 0.00 | 0.00 | 90 | 1017.2 |
| 20260505101559 | 10 | 0 | 0.0 | 0.0 | 0.00 | 0.00 | 0.00 | 89 | 1016.8 |
| 20260505100059 | 11 | 0 | 0.0 | 0.0 | 0.00 | 0.00 | 0.00 | 89 | 1016.7 |
| 20260505094540 | 11 | 0 | 0.0 | 0.0 | 0.00 | 0.00 | 0.00 | 89 | 1016.6 |
| 20260505093040 | 11 | 0 | 0.0 | 0.0 | 0.00 | 0.00 | 0.00 | 89 | 1016.6 |
| 20260505091543 | 11 | 0 | 0.0 | 0.0 | 0.00 | 0.00 | 0.00 | 88 | 1016.4 |
| 20260505090042 | 11 | 0 | 0.0 | 0.0 | 0.00 | 0.00 | 0.00 | 88 | 1016.2 |
| 20260505084543 | 11 | 0 | 0.0 | 0.0 | 0.00 | 0.00 | 0.00 | 88 | 1016.3 |
| 20260505083041 | 11 | 0 | 0.0 | 0.0 | 0.00 | 0.00 | 0.00 | 87 | 1016.0 |
| 20260505081558 | 11 | 0 | 0.0 | 0.0 | 0.00 | 0.00 | 0.00 | 87 | 1015.9 |
| 20260505080056 | 11 | 0 | 0.0 | 0.0 | 0.00 | 0.00 | 0.00 | 87 | 1015.8 |
| 20260505074543 | 11 | 0 | 0.0 | 0.0 | 0.00 | 0.00 | 0.00 | 86 | 1015.7 |
| 20260505073042 | 11 | 0 | 0.0 | 0.0 | 0.00 | 0.00 | 0.00 | 85 | 1015.7 |
| 20260505071549 | 12 | 0 | 0.0 | 0.0 | 0.00 | 0.00 | 0.00 | 85 | 1015.7 |
| 20260505070040 | 12 | 0 | 0.0 | 0.0 | 0.00 | 0.00 | 0.00 | 84 | 1015.7 |
| 20260505064544 | 12 | 0 | 0.0 | 0.0 | 0.00 | 0.00 | 0.00 | 84 | 1015.8 |
| 20260505063047 | 12 | 0 | 0.0 | 0.0 | 0.00 | 0.00 | 0.00 | 84 | 1015.9 |
| 20260505061544 | 12 | 0 | 0.0 | 0.0 | 0.00 | 0.00 | 0.00 | 83 | 1016.1 |
| 20260505060043 | 12 | 0 | 0.0 | 0.0 | 0.00 | 0.00 | 0.00 | 83 | 1016.3 |
| 20260505054547 | 13 | 0 | 0.0 | 0.0 | 0.00 | 0.00 | 0.00 | 82 | 1016.3 |
| 20260505053047 | 13 | 0 | 0.0 | 0.0 | 0.00 | 0.00 | 0.00 | 82 | 1016.5 |
| 20260505051543 | 13 | 0 | 0.0 | 0.0 | 0.00 | 0.00 | 0.00 | 80 | 1016.7 |
| 20260505041546 | 15 | 0 | 0.0 | 0.0 | 0.00 | 0.00 | 0.00 | 77 | 1016.7 |
| 20260505040045 | 15 | 0 | 0.0 | 0.0 | 0.00 | 0.00 | 0.00 | 74 | 1016.7 |
| 20260505034546 | 16 | 0 | 0.0 | 0.0 | 0.00 | 0.00 | 0.00 | 72 | 1016.7 |
| 20260505033041 | 16 | 0 | 0.0 | 3.2 | 0.00 | 0.00 | 0.00 | 70 | 1016.8 |
| 20260505031547 | 17 | 0 | 0.0 | 4.8 | 0.00 | 0.00 | 0.00 | 69 | 1016.8 |
| 20260505030045 | 17 | 0 | 0.0 | 4.8 | 0.00 | 0.00 | 0.00 | 67 | 1016.8 |
| 20260505024544 | 17 | 117 | 1.6 | 9.7 | 0.00 | 0.00 | 0.00 | 66 | 1016.7 |
| 20260505023050 | 18 | 123 | 0.0 | 8.0 | 0.00 | 0.00 | 0.00 | 66 | 1016.6 |
| 20260505021544 | 18 | 119 | 0.0 | 8.0 | 0.00 | 0.00 | 0.00 | 65 | 1016.5 |
| 20260505020040 | 18 | 171 | 3.2 | 6.4 | 0.00 | 0.00 | 0.00 | 63 | 1016.4 |
| 20260505014542 | 18 | 126 | 1.6 | 8.0 | 0.00 | 0.00 | 0.00 | 61 | 1016.2 |
| 20260505013039 | 19 | 157 | 3.2 | 12.9 | 0.00 | 0.00 | 0.00 | 59 | 1016.2 |
| 20260505011544 | 20 | 121 | 3.2 | 11.3 | 0.00 | 0.00 | 0.00 | 58 | 1016.0 |
| 20260505010103 | 20 | 153 | 3.2 | 11.3 | 0.00 | 0.00 | 0.00 | 57 | 1015.8 |
| 20260505004541 | 21 | 150 | 3.2 | 16.1 | 0.00 | 0.00 | 0.00 | 55 | 1015.4 |
| 20260505003043 | 21 | 136 | 4.8 | 12.9 | 0.00 | 0.00 | 0.00 | 54 | 1015.1 |
| 20260505001541 | 21 | 142 | 3.2 | 12.9 | 0.00 | 0.00 | 0.00 | 52 | 1015.1 |
| 20260505000048 | 22 | 141 | 1.6 | 8.0 | 0.00 | 0.00 | 0.00 | 48 | 1014.8 |
| 20260504234544 | 23 | 109 | 0.0 | 6.4 | 0.00 | 0.00 | 0.00 | 44 | 1014.7 |
| 20260504233042 | 23 | 144 | 1.6 | 6.4 | 0.00 | 0.00 | 0.00 | 42 | 1014.5 |
| 20260504231545 | 23 | 0 | 1.6 | 6.4 | 0.00 | 0.00 | 0.00 | 41 | 1014.5 |
| 20260504230045 | 24 | 184 | 4.8 | 11.3 | 0.00 | 0.00 | 0.00 | 39 | 1014.5 |
| 20260504224537 | 24 | 148 | 4.8 | 17.7 | 0.00 | 0.00 | 0.00 | 38 | 1014.4 |
| 20260504223037 | 24 | 134 | 6.4 | 16.1 | 0.00 | 0.00 | 0.00 | 38 | 1014.5 |
| 20260504221556 | 25 | 128 | 6.4 | 17.7 | 0.00 | 0.00 | 0.00 | 37 | 1014.6 |
| 20260504220044 | 25 | 169 | 6.4 | 19.3 | 0.00 | 0.00 | 0.00 | 36 | 1014.4 |
| 20260504214538 | 25 | 115 | 8.0 | 16.1 | 0.00 | 0.00 | 0.00 | 35 | 1014.5 |
| 20260504213057 | 25 | 103 | 4.8 | 16.1 | 0.00 | 0.00 | 0.00 | 36 | 1014.4 |
| 20260504211546 | 26 | 105 | 6.4 | 16.1 | 0.00 | 0.00 | 0.00 | 36 | 1014.4 |
| 20260504210038 | 26 | 60 | 3.2 | 14.5 | 0.00 | 0.00 | 0.00 | 34 | 1014.4 |
| 20260504204542 | 26 | 92 | 4.8 | 12.9 | 0.00 | 0.00 | 0.00 | 35 | 1014.6 |
| 20260504203049 | 26 | 171 | 6.4 | 17.7 | 0.00 | 0.00 | 0.00 | 32 | 1014.7 |
| 20260504201541 | 26 | 0 | 1.6 | 16.1 | 0.00 | 0.00 | 0.00 | 35 | 1014.6 |
| 20260504200039 | 26 | 86 | 4.8 | 16.1 | 0.00 | 0.00 | 0.00 | 35 | 1014.6 |
| 20260504194544 | 26 | 227 | 3.2 | 14.5 | 0.00 | 0.00 | 0.00 | 36 | 1014.9 |
| 20260504193045 | 26 | 165 | 4.8 | 19.3 | 0.00 | 0.00 | 0.00 | 30 | 1015.3 |
| 20260504191543 | 26 | 213 | 1.6 | 8.0 | 0.00 | 0.00 | 0.00 | 36 | 1015.4 |
| 20260504190044 | 25 | 96 | 3.2 | 16.1 | 0.00 | 0.00 | 0.00 | 34 | 1015.9 |
| 20260504184542 | 25 | 146 | 4.8 | 16.1 | 0.00 | 0.00 | 0.00 | 36 | 1016.2 |
| 20260504183043 | 25 | 155 | 6.4 | 16.1 | 0.00 | 0.00 | 0.00 | 38 | 1016.3 |
| 20260504181543 | 25 | 112 | 6.4 | 17.7 | 0.00 | 0.00 | 0.00 | 36 | 1016.4 |
| 20260504180049 | 25 | 129 | 3.2 | 12.9 | 0.00 | 0.00 | 0.00 | 41 | 1016.4 |
| 20260504174546 | 25 | 0 | 1.6 | 6.4 | 0.00 | 0.00 | 0.00 | 39 | 1016.4 |
| 20260504173042 | 24 | 0 | 1.6 | 16.1 | 0.00 | 0.00 | 0.00 | 39 | 1016.7 |
| 20260504171540 | 24 | 200 | 3.2 | 8.0 | 0.00 | 0.00 | 0.00 | 37 | 1016.6 |